User: anonymous
Location: Coleman
(45.0650°N, 88.0340°W)
Time: 11:07:34
(UTC-05:00)
Language:

Iridium 97 - Orbit

View from above orbital plane
View from above orbital plane
View from above satellite
View from above satellite

Ground track
Ground track

The orbit data is extracted from the following two-line orbital elements,

1 27450U 02031A   14263.45166456  .00000327  00000-0  10979-3 0  3790
2 27450 086.4009 017.2087 0001356 134.0987 226.0320 14.34215337646799
Epoch (UTC): 20 September 2014 10:50:23
Eccentricity: 0.0001356
inclination: 86.4009°
perigee height: 777 km
apogee height: 778 km
right ascension of ascending node: 17.2087°
argument of perigee: 134.0987°
revolutions per day: 14.34215337
mean anomaly at epoch: 226.0320°
orbit number at epoch: 64679

The dashed part of the orbit path shows where the satellite is in the earth's shadow,  

DLR